COSMOS 2330

Satellite information

Favourite Embed

Satellite Type and Status

PAYLOADIN ORBIT

Key statistics

Satellite COSMOS 2330 at a glance.

Uptime

10843

Days in orbit

Revolutions

≈ 12.6

Per day

Orbit

LEO

Low Earth Orbit

Inclination

82.6

Latest

Satellite identification and parameters

Extended collection of information and parameters for COSMOS 2330.

Object identification

Identified? True

Debris? False

Object name: COSMOS 2330

International designator: 1996-009F

Object number (NORAD): 23792

Object ID (CCSDS): 23792

Country: COMMONWEALTH OF INDEPENDENT STATES (CIS)

Current information (Y/N): Y

RCS size: MEDIUM

Orbital parameters

Period: 114.198 minutes

Inclination: 82.5776 deg

SMA: 7797.08 km

Apoapsis: 1427.354 km

Periapsis: 1410.536 km

RAAN: 132.9948 deg

Eccentricy: 0.00107848

Argument of periapsis: 246.6418 deg

Mean anomaly: 113.3538 deg

Mean motion: 12.60970046 rev/day

Mean motion (dot): 0.0000001 rev/day2

B* drag term: -0.000004356857 1/REarth

Two-line elements (TLE)

Creation date: Oct. 26, 2025, 2:54 a.m.

Reference frame: TEME

Reference center: EARTH

Epoch: Oct. 25, 2025, 9:57 p.m. UTC

TLE line 0: 0 COSMOS 2330

TLE line 1: 1 23792U 96009F 25298.91520318 .00000010 00000-0 -43569-5 0 9996

TLE line 2: 2 23792 82.5776 132.9948 0010785 246.6418 113.3538 12.60970046366114

Live tracking on map

Real-time ground track for satellite COSMOS 2330.

In-orbit conjunctions

A list of the most updated potential collisions computed for object COSMOS 2330.

Target Orbit TCA Probability of collision Miss distance Type
COSMOS 2253 LEO 2024-09-04 05:14:50 0.000213056 149.0 (m) PAYLOAD

Associated space launch

Gonets- satellite were the civilian derivate of the military Strela-3 satellite system. The Gonets system was offered to support international health organizations to meet their global communications needs for the transfer of medical data and records to remote sites. Strela-3 was the second generation of Russian strategic store-dump military communications satellite. Development of this generation to replace the first generation Strela-1M and Strela-2M satellites began in 1973.

COSMOS 2330 was lifted into orbit during the mission ‘Tsiklon-3 | Gonets-D 319 to 321 & Strela-3 113 to 115’, on board a Tsiklon-3 space rocket.

The launch took place on Feb. 19, 1996, 12:58 a.m. from 32/1.

For more information about the launch, click the button.

Launch to space Tsiklon-3 | Gonets-D 319 to 321 & Strela-3 113 to 115
Tsiklon-3 | Gonets-D 319 to 321 & Strela-3 113 to 115

Agency: N/A

Status: Launch Successful

Launch date: Feb. 19, 1996, 12:58 a.m. UTC

Rocket: Tsiklon-3

Launch pad: 32/1

Location: Plesetsk Cosmodrome, Russian Federation

...

Latest news about this satellite

There are no fresh news available about this satellite. Check back as we update our databases every day.


Newsletter sign-up

Weekly statistics, charts and insights to help you stay on top of the space industry.